Flag for Mozambique Weather past 2 weeks in Maputo, Mozambique

Now
72 °F

Fog.


Feels Like: 69 °F
Forecast: 70 / 85 °F
Wind: 3 mph from Northeast

Location: Maputo / Mavalane

Current Time: Mar 30, 2015 at 12:55:41 AM

Latest Report: Mar 30, 2015 at 12:00 AM


Visibility: 4 mi

Pressure: 30.01 "Hg

Humidity: 88%

Dew point: 68 °F

Location of MaputoLocation

Historic Weather in Maputo — Graph

°F

Maputo temperature yesterday

Maximum temperature yesterday: 82 °F (at 12:00 PM)
Minimum temperature yesterday: 72 °F (at 12:00 AM)
Average temperature yesterday: 76 °F

Past Weeks' High & Low Weather Summary

 TemperatureHumidityPressure
High100 °F (Mar 19, 2:00 PM)94% (Mar 19, 5:00 AM)30.18 "Hg (Mar 19, 5:00 AM)
Low70 °F (Mar 18, 4:00 AM)33% (Mar 26, 2:00 PM)29.83 "Hg (Mar 16, 3:00 PM)
Average81 °F70%29.99 "Hg
* Reported Midnight between Mar 14 and Mar 15 — Midnight between Mar 29 and Mar 30, Maputo, Weather by CustomWeather, © 2015

Note: Actual official high and low records may vary slightly from our data, if they occured in-between our weather recording intervals... More about our weather records

Advertising

Maputo weather history for previous 24 hours

 ConditionsComfort  
Time TempWeatherWind HumidityBarometerVisibility
12:00 AM
Mon, Mar 30
72 °FFog.3 mph88%30.01 "Hg4 mi
10:00 PM
Sun, Mar 29
73 °FPassing clouds.5 mph89%30.01 "HgN/A
9:00 PM73 °FPassing clouds.5 mph89%30.01 "HgN/A
8:00 PM77 °FPassing clouds.7 mph79%29.98 "HgN/A
6:00 PM77 °FPassing clouds.9 mph79%29.95 "HgN/A
5:00 PM81 °FPassing clouds.12 mph66%29.95 "HgN/A
4:00 PM81 °FPartly sunny.9 mph66%29.92 "HgN/A
3:00 PM81 °FPartly sunny.12 mph70%29.95 "HgN/A
2:00 PM82 °FPartly sunny.7 mph62%29.95 "HgN/A
1:00 PM81 °FPartly sunny.6 mph62%29.98 "HgN/A
12:00 PM82 °FPartly sunny.7 mph58%30.01 "HgN/A
11:00 AM81 °FPartly sunny.9 mph62%30.04 "HgN/A
10:00 AM77 °FPartly sunny.9 mph65%30.04 "HgN/A
9:00 AM75 °FPartly sunny.10 mph65%30.04 "HgN/A
8:00 AM72 °FOvercast.10 mph73%30.07 "HgN/A
7:00 AM72 °FBroken clouds.8 mph73%30.04 "HgN/A
6:00 AM72 °FPartly sunny.9 mph73%30.01 "HgN/A
5:00 AM72 °FPartly sunny.9 mph73%30.01 "HgN/A
4:00 AM72 °FPassing clouds.8 mph73%30.01 "HgN/A
3:00 AM72 °FPassing clouds.8 mph73%30.01 "HgN/A
2:00 AM72 °FPassing clouds.8 mph78%30.04 "HgN/A
1:00 AM72 °FPassing clouds.12 mph78%30.04 "HgN/A
12:00 AM72 °FPassing clouds.12 mph83%30.07 "HgN/A
Weather by CustomWeather, © 2015

See weather overviewHow to use our weather pages